Вернуться в каталог

FENGYUN 1C DEB

LostSSO
NORAD 31318·DEBRIS·🇨🇳 China

Запущен May 10, 1999 с Taiyuan Satellite Launch Center

Loading…

Ближайшие Пролёты (ближайшие 24 часа)

TLE

УстаревшееSource: Space-Track

Эпоха: Nov 4, 2009, 01:31 UTC

1 31318U 99025BPW 09308.06340418 -.00000046  00000-0  00000-0 0  9998
2 31318  99.0189 326.0718 0105784 151.2041 209.5640 14.24254391133895

Отслеживайте FENGYUN 1C DEB в реальном времени с AllMySat

Download on the App Store